To NAV CANADA Home Page Login to a new session Search on AWWS site Feedback and Comments Disclaimer Vers la page française équivalente Tips FAQ What's new on the site To the Forecasts and Observations / NOTAM section To "File a Flight Plan" website Publications and other links Update of the User's profile FIC Telephone Numbers My Weather Data Folder Route Weather Data Regional Weather Data Local Weather Data To the Forecasts and Observations / NOTAM section
Request Generated 12/01/2015 at 07:25:13 UTC . Weather information available at that time is displayed.



LWIS CYFT 010700Z AUTO 24014G23KT M15/M20 A2973=
LWIS CYFT 010600Z AUTO 24019G26KT M16/M19 A2974=
LWIS CYFT 010500Z AUTO 23018G24KT M16/M20 A2976=

CYFT - No TAF is issued for this station

Your time UTC time
Weather data provided by Environment Canada and NAV CANADA